Temperature
15 15 15 15 15 15 15 15 15 15 15 16 16 16 15 15 16 16 16 16 16 16 16 16 16 16 16 16 16 16 16 16 16 16 16 15 15 15 15 15 15 15 15
15 15 15 15 15 15 15 15 15 15 15 15 15 15 15 15 15 15 15 15 16 15 15 16 16 16 16 16 15 15 16 15 15 15 15 15 15 15 15 15 15 15 15
15 15 15 15 15 15 15 15 15 15 15 15 15 15 15 15 15 15 15 15 15 15 15 16 15 15 15 15 15 15 15 15 15 15 15 14 14 15 15 15 14 14 14
15 14 14 15 15 15 15 15 15 15 15 15 15 15 15 15 15 15 15 15 15 15 15 15 15 15 15 15 15 15 15 15 15 14 14 14 14 14 14 14 14 14 14
14 14 14 15 15 15 15 15 15 15 15 14 14 15 15 15 15 15 15 15 15 15 15 15 15 15 15 15 15 15 15 15 15 14 14 14 14 14 14 14 14 14 14
14 14 14 14 14 14 14 15 15 14 14 14 14 14 14 15 14 15 15 15 15 15 15 15 15 15 15 15 15 15 15 14 14 14 14 13 13 14 14 14 14 14 14
14 14 14 14 14 14 14 14 14 14 14 14 14 14 14 14 14 14 14 14 14 14 14 14 14 14 14 14 14 14 14 14 14 13 13 13 13 13 13 13 13 13 13
14 14 14 14 14 14 14 14 14 14 14 14 14 14 14 14 14 14 14 14 14 14 14 14 14 14 14 14 14 14 14 14 14 13 13 13 13 13 13 13 13 13 13
13 13 13 13 13 13 14 14 14 14 14 14 14 14 14 14 14 14 14 14 14 14 14 14 14 14 14 14 14 14 14 14 13 13 13 13 13 13 13 13 13 13 12
13 13 13 13 13 13 13 13 13 13 13 13 13 13 13 14 14 14 14 14 14 13 13 13 13 14 14 14 14 14 14 13 12 12 12 12 13 13 12 12 12 12 12
13 13 13 13 13 13 13 13 13 13 13 13 13 13 13 13 13 13 13 13 13 13 13 13 13 13 13 13 13 13 13 13 12 12 12 12 12 12 12 12 12 12 12
13 13 12 12 12 12 12 13 12 12 13 13 13 13 13 13 13 13 13 13 13 13 13 13 13 13 13 13 13 13 12 12 12 12 12 12 12 12 12 12 11 11 11
12 12 12 12 12 12 12 12 12 12 12 12 12 12 12 12 12 13 13 12 12 12 12 13 12 12 12 12 12 12 12 12 11 11 11 12 11 11 11 11 11 11 11
12 12 12 12 12 12 12 12 12 12 12 12 12 12 12 12 12 12 12 12 12 12 12 12 12 12 12 12 12 12 12 11 11 11 11 11 11 11 11 11 11 11 11
12 12 12 12 12 12 12 12 12 12 12 12 12 12 12 12 12 12 12 12 12 12 12 12 12 12 12 12 12 11 11 11 11 11 11 11 11 11 11 10 10 10 10
11 11 11 11 11 11 11 11 11 11 11 11 11 11 11 11 11 11 12 12 11 11 11 11 11 11 11 11 11 11 11 11 11 11 11 11 11 11 10 10 10 10 10
11 11 11 11 11 11 11 11 11 11 11 11 11 11 11 11 11 11 11 11 11 11 11 11 11 11 11 11 11 11 11 10 10 10 10 10 10 10 10 10 10 10 10
11 11 11 11 11 11 11 11 10 11 11 10 10 10 10 11 11 11 11 11 11 11 11 11 11 11 10 10 10 10 10 10 10 10 10 10 10 10 10 10 10 10 9
10 11 11 10 10 10 10 10 10 10 10 10 10 10 10 10 10 10 10 10 10 10 10 10 10 10 10 10 10 10 10 10 10 10 10 10 10 10 9 9 9 9 9
10 10 10 10 10 10 10 10 9 9 9 9 10 10 10 10 10 10 10 10 10 10 10 10 10 10 10 10 10 9 9 9 9 9 9 9 9 9 9 9 9 9 9
10 10 10 10 10 10 9 9 9 9 9 9 9 9 9 9 9 9 9 9 9 9 9 9 9 9 9 9 9 8 8 8 9 9 9 9 9 9 9 9 9 9 9
9 9 9 9 9 9 9 9 9 9 9 9 9 9 9 9 9 9 9 9 9 9 9 9 9 9 9 9 8 8 7 7 8 8 8 8 8 8 8 8 8 8 8
9 9 9 9 9 9 8 8 8 8 8 8 8 8 8 8 8 8 8 8 8 8 8 8 8 8 8 8 8 8 7 8 7 7 7 8 8 8 8 8 8 8 8
8 8 8 8 8 8 8 8 8 8 8 8 8 8 8 7 8 8 8 7 8 8 8 8 8 8 8 8 8 8 8 7 7 7 7 7 7 7 7 7 7 7 7
8 8 8 8 8 8 8 7 7 7 7 7 7 7 7 7 7 7 7 7 7 7 7 7 7 8 8 7 7 7 7 7 7 7 6 6 6 7 7 7 7 7 7
7 8 8 8 7 7 7 7 7 7 7 6 6 7 7 7 7 7 7 7 7 7 7 7 7 7 7 7 7 7 7 7 7 6 6 6 5 6 6 6 6 6 6
Wind_Speed
5 5 6 6 7 8 9 9 9 9 9 9 9 9 9 9 9 9 9 9 10 10 11 11 12 13 13 13 13 14 14 14 14 15 15 15 15 15 15 14 12 14 15
6 7 7 6 7 8 9 9 9 9 9 9 9 9 9 8 8 8 8 9 9 10 10 11 11 12 12 13 13 13 14 14 14 14 13 14 14 14 14 14 13 13 14
7 8 8 7 8 9 9 8 8 8 8 8 8 8 8 8 8 8 8 9 9 9 10 10 11 11 12 12 13 13 13 13 12 10 9 11 13 14 14 14 14 14 14
8 8 8 8 8 8 8 8 8 8 8 8 8 8 8 8 8 8 8 8 9 9 9 10 11 11 11 12 12 12 12 11 10 7 8 10 11 13 14 14 14 13 13
8 8 8 8 8 7 7 7 7 7 7 7 7 7 8 7 7 7 7 7 8 8 9 10 10 10 11 11 11 11 11 10 8 7 8 9 10 12 12 13 13 13 13
7 7 8 7 8 7 7 7 7 7 7 6 6 7 7 7 7 7 7 7 7 8 8 9 9 10 10 11 10 10 10 8 7 7 8 8 9 11 12 12 12 12 12
7 6 8 7 7 7 7 6 6 6 6 6 6 6 6 6 6 6 6 7 7 7 8 8 9 9 10 10 10 9 8 6 6 7 8 8 10 11 11 11 11 11 11
6 6 7 7 6 6 6 6 6 6 6 5 5 5 5 5 5 5 5 6 6 7 7 8 8 8 9 9 9 8 7 5 6 7 7 8 9 9 9 10 10 10 10
5 5 5 6 6 6 6 6 5 5 5 5 5 5 5 5 5 5 5 6 6 6 7 8 8 8 8 8 8 8 7 4 5 6 6 7 9 8 9 9 9 9 9
4 4 4 4 4 5 5 5 5 5 5 5 6 5 5 5 4 4 5 6 6 6 6 7 7 7 7 7 7 7 5 3 4 5 5 7 8 8 8 8 8 8 8
4 3 3 3 3 3 3 4 4 5 5 5 5 4 3 3 3 3 3 5 6 6 6 6 7 7 7 6 6 5 4 3 4 4 5 7 7 7 6 7 7 7 7
5 3 2 2 2 2 2 3 2 3 3 2 2 3 2 2 2 2 3 4 5 5 5 5 5 6 5 5 5 4 3 3 3 4 5 6 6 6 5 6 6 6 6
5 3 2 2 2 2 2 2 1 1 1 2 2 1 1 2 2 2 3 4 4 4 4 4 5 4 4 4 4 4 3 3 3 3 5 5 5 5 5 5 5 5 5
5 4 3 2 2 2 2 1 1 1 1 0 1 2 1 1 2 2 2 3 3 3 3 3 3 4 4 4 4 4 4 3 3 3 4 5 4 4 4 4 4 4 4
6 4 3 3 3 2 2 1 1 1 0 0 1 1 2 2 2 2 2 3 3 3 3 3 3 4 3 3 4 4 4 4 4 3 4 5 3 3 3 3 3 3 3
6 5 4 3 2 2 2 2 1 1 1 1 1 1 2 2 2 2 2 3 3 4 4 4 4 4 4 3 3 4 4 4 4 4 4 4 4 3 3 3 2 2 3
5 5 4 4 3 3 2 2 1 1 1 1 1 2 2 2 3 3 2 3 3 4 4 4 4 4 4 4 4 3 3 3 4 4 4 3 3 4 2 2 2 2 2
5 5 4 3 3 3 3 2 2 1 1 1 1 2 2 2 2 3 2 3 4 4 4 4 4 4 4 4 3 3 3 3 4 4 3 3 3 3 3 2 2 2 2
5 5 4 4 4 3 3 2 2 1 1 1 1 1 1 2 3 3 3 3 4 3 3 4 4 4 4 4 3 3 2 3 3 4 3 3 3 2 2 2 2 2 1
4 4 4 4 4 3 3 2 2 1 1 1 0 1 1 2 2 3 2 3 3 3 3 4 4 4 4 4 3 2 2 2 2 3 3 3 3 2 2 2 3 2 2
4 4 4 4 4 3 3 3 2 2 2 1 1 1 1 1 2 2 2 3 3 3 4 4 4 5 4 3 3 2 2 2 2 2 3 3 3 3 2 2 2 2 2
5 5 5 5 4 4 3 3 2 2 2 2 1 1 1 1 1 2 3 3 3 3 4 4 4 4 3 4 3 3 3 3 3 3 3 3 3 3 2 2 2 2 2
5 5 4 5 4 4 4 3 2 1 1 1 1 1 1 2 2 2 3 3 3 3 4 4 4 5 4 4 4 3 3 4 3 3 4 4 4 3 2 2 3 2 2
5 5 5 5 5 5 4 5 5 4 3 2 2 2 1 2 2 2 3 3 3 3 3 4 4 4 5 5 4 3 3 2 2 2 3 4 4 4 4 3 3 3 3
5 4 4 5 5 5 5 6 6 5 3 2 2 2 2 1 1 2 2 3 3 3 3 4 4 4 4 5 4 3 3 3 3 3 3 3 3 3 4 3 3 3 3
4 4 4 5 5 5 5 5 6 6 4 4 3 3 2 2 1 2 2 2 3 3 3 3 4 4 4 4 4 3 3 3 3 4 4 4 4 3 3 3 3 3 4
Wind_Direction
151 147 130 125 119 115 109 105 103 101 102 104 104 103 100 98 97 97 93 93 91 88 91 93 91 90 88 86 86 84 84 83 82 83 85 84 85 84 83 83 86 85 82
149 146 132 129 122 119 114 108 105 105 104 103 102 102 101 100 97 95 96 96 96 95 95 94 94 93 91 88 87 86 85 84 83 84 88 90 87 86 84 80 76 83 83
141 139 139 130 122 119 117 113 110 107 105 103 101 99 100 102 100 97 96 97 98 101 99 98 97 95 92 90 88 88 88 86 85 88 97 95 91 87 85 84 83 84 81
139 138 135 126 124 120 117 115 114 109 106 107 104 100 99 100 101 101 99 101 100 102 101 102 100 97 95 93 90 90 89 88 84 89 92 89 91 87 85 84 84 84 82
140 137 126 122 122 122 121 118 115 112 109 108 106 101 98 98 99 102 104 104 104 105 104 104 104 102 98 96 94 92 91 90 88 91 88 88 89 89 88 87 85 83 81
140 136 126 125 121 118 120 121 118 115 112 112 109 105 99 98 98 97 104 106 108 109 111 109 106 104 102 98 97 95 95 95 103 90 86 88 90 90 90 89 87 84 81
138 132 127 122 121 119 115 114 117 118 116 113 109 105 102 100 103 104 105 107 111 112 116 116 111 107 104 101 101 99 98 94 98 94 90 88 88 90 91 90 90 87 84
138 134 130 124 121 122 121 116 114 116 116 116 111 106 105 104 103 110 108 109 112 111 112 117 112 110 108 104 103 101 100 106 106 98 96 93 89 93 95 95 93 90 87
135 134 133 138 132 129 125 119 112 110 115 111 104 101 100 102 105 110 111 108 112 115 113 117 115 114 114 109 104 101 97 105 111 102 98 94 93 97 97 97 97 94 90
136 136 135 136 137 139 135 120 114 112 111 109 101 95 97 105 113 112 127 115 114 120 119 121 124 122 121 117 110 103 102 126 113 106 100 97 97 99 100 101 99 96 93
148 147 141 137 133 133 133 121 119 115 109 117 114 103 118 144 146 139 127 119 119 123 125 127 133 130 128 122 117 114 127 124 120 106 100 98 107 106 105 106 104 100 97
170 164 154 150 139 131 126 129 136 139 137 142 145 147 161 161 165 145 122 132 131 128 132 133 140 148 158 152 143 151 151 139 127 116 102 102 115 118 118 114 112 108 103
177 167 168 163 155 155 143 140 133 144 153 165 161 169 191 173 170 175 175 166 162 158 159 152 165 166 168 160 162 166 161 152 140 128 112 110 123 127 127 124 119 112 106
179 179 180 174 172 176 168 150 152 151 169 168 196 199 205 202 198 193 198 191 189 183 176 177 179 169 169 169 170 169 169 165 155 141 116 117 132 139 135 130 127 127 119
190 188 187 180 184 181 169 159 158 175 191 207 239 229 224 221 220 206 205 199 196 188 181 180 184 178 176 174 174 175 176 175 169 160 134 121 141 155 151 145 140 141 137
200 197 190 184 188 187 185 189 191 181 188 217 233 252 238 235 232 222 214 207 199 194 189 190 191 180 179 171 174 181 184 184 181 174 164 145 140 155 165 164 165 165 161
207 199 194 191 188 192 192 198 194 187 190 213 244 240 232 229 234 230 218 217 205 197 192 188 190 188 183 180 188 190 189 194 188 185 182 178 170 164 175 192 195 194 192
207 199 197 194 191 198 196 197 191 182 187 205 240 247 235 230 230 233 229 221 212 200 195 193 196 194 190 192 193 192 189 190 198 198 192 191 192 191 183 193 208 202 204
208 202 198 194 191 197 194 188 182 162 166 198 224 256 252 238 228 227 234 226 216 205 201 200 204 199 191 194 195 194 194 197 203 199 195 193 194 201 196 154 171 183 185
206 205 204 194 193 191 187 187 185 169 176 189 214 245 261 251 234 226 223 224 219 211 205 203 201 201 198 193 187 187 186 198 212 203 201 196 197 204 211 203 194 200 206
199 201 203 198 195 192 195 197 198 208 212 208 222 240 239 248 243 234 227 219 221 216 209 205 199 193 193 188 186 189 191 204 215 226 213 204 196 202 208 213 219 221 210
199 200 201 200 199 199 200 202 207 209 215 221 215 227 242 249 238 234 231 224 223 221 210 206 196 195 194 194 201 199 211 210 214 231 229 219 213 201 201 221 227 226 236
202 204 204 201 199 199 195 183 171 184 213 218 228 233 245 251 243 229 231 226 224 226 220 211 206 209 202 199 206 215 222 227 210 203 217 221 221 216 215 228 243 236 240
210 205 205 203 201 198 194 190 188 198 212 227 226 234 242 246 246 234 224 221 222 229 230 218 213 219 210 203 204 224 247 254 219 200 204 222 228 228 231 228 241 251 249
205 198 197 198 201 199 200 202 203 206 212 212 210 215 220 238 242 232 224 218 219 223 229 222 213 212 213 209 207 211 217 230 241 232 229 222 226 230 235 236 239 248 253
192 188 188 191 198 199 203 208 211 209 207 203 207 211 222 226 233 228 219 213 211 213 221 221 211 212 216 213 211 210 212 211 218 228 235 234 240 240 243 241 240 247 255
Height
1521 1522 1523 1525 1526 1526 1527 1528 1528 1529 1529 1530 1530 1530 1530 1531 1531 1531 1531 1531 1532 1532 1532 1532 1532 1532 1532 1532 1532 1532 1532 1532 1532 1532 1532 1532 1532 1532 1532 1533 1533 1533 1533
1520 1522 1523 1525 1526 1527 1528 1528 1529 1529 1530 1530 1531 1531 1531 1531 1532 1532 1532 1532 1532 1533 1533 1533 1533 1533 1534 1534 1534 1533 1534 1534 1534 1534 1534 1534 1534 1534 1534 1535 1535 1535 1535
1520 1522 1523 1525 1526 1527 1528 1528 1529 1530 1530 1531 1531 1532 1532 1532 1532 1532 1533 1533 1533 1533 1534 1534 1534 1534 1535 1535 1535 1535 1535 1535 1535 1536 1536 1536 1536 1536 1536 1536 1536 1536 1537
1520 1522 1523 1525 1526 1527 1528 1529 1529 1530 1531 1531 1532 1532 1532 1533 1533 1533 1533 1533 1534 1534 1534 1535 1535 1535 1536 1536 1536 1536 1536 1537 1537 1537 1538 1538 1538 1538 1538 1537 1538 1538 1538
1521 1522 1523 1525 1526 1527 1528 1529 1529 1530 1531 1531 1532 1532 1533 1533 1533 1533 1534 1534 1534 1535 1535 1535 1535 1536 1536 1536 1537 1537 1537 1538 1538 1539 1539 1539 1539 1539 1539 1539 1539 1539 1539
1521 1523 1523 1525 1526 1527 1528 1529 1529 1530 1531 1531 1532 1533 1533 1533 1533 1534 1534 1534 1535 1535 1535 1536 1536 1536 1537 1537 1537 1538 1538 1539 1539 1540 1540 1540 1540 1540 1540 1540 1540 1540 1540
1521 1522 1523 1524 1526 1527 1528 1528 1529 1530 1530 1531 1532 1532 1533 1533 1533 1534 1534 1534 1535 1535 1535 1536 1536 1537 1537 1537 1538 1538 1539 1539 1540 1541 1540 1541 1541 1541 1540 1540 1540 1540 1540
1521 1522 1523 1524 1525 1526 1527 1528 1529 1529 1530 1531 1531 1532 1532 1533 1533 1534 1534 1534 1535 1535 1536 1536 1536 1537 1537 1538 1538 1539 1539 1540 1541 1541 1541 1541 1541 1541 1541 1541 1541 1541 1541
1521 1522 1523 1524 1524 1525 1526 1527 1528 1529 1529 1530 1531 1531 1532 1532 1533 1533 1534 1534 1534 1535 1535 1536 1536 1537 1537 1538 1538 1539 1540 1540 1541 1542 1542 1542 1542 1542 1542 1542 1541 1541 1541
1520 1521 1522 1523 1524 1524 1525 1526 1527 1528 1528 1529 1530 1530 1531 1532 1532 1533 1533 1534 1534 1534 1535 1535 1536 1537 1537 1538 1538 1539 1540 1540 1541 1542 1542 1542 1542 1542 1542 1542 1542 1542 1542
1519 1520 1521 1522 1522 1523 1524 1525 1526 1527 1527 1528 1529 1529 1530 1530 1531 1532 1532 1533 1533 1533 1534 1535 1535 1536 1536 1537 1538 1539 1539 1540 1541 1541 1542 1542 1542 1542 1542 1542 1542 1542 1542
1517 1518 1519 1520 1521 1522 1523 1524 1524 1525 1526 1526 1527 1527 1528 1529 1529 1530 1531 1531 1532 1532 1533 1534 1534 1535 1536 1536 1537 1538 1539 1540 1541 1541 1541 1541 1542 1542 1542 1542 1542 1542 1542
1516 1517 1518 1519 1520 1521 1522 1522 1523 1524 1524 1525 1525 1526 1526 1527 1528 1528 1529 1530 1530 1531 1532 1532 1533 1534 1535 1535 1536 1537 1538 1539 1540 1540 1540 1540 1541 1541 1541 1542 1542 1542 1542
1514 1515 1516 1517 1518 1519 1520 1521 1521 1522 1522 1523 1523 1524 1524 1525 1526 1526 1527 1528 1528 1529 1530 1531 1532 1532 1533 1534 1535 1536 1537 1538 1538 1539 1539 1540 1540 1541 1541 1541 1541 1541 1541
1512 1513 1514 1515 1516 1517 1518 1518 1519 1520 1520 1521 1521 1521 1522 1523 1523 1524 1525 1525 1526 1527 1528 1529 1530 1531 1532 1533 1534 1534 1535 1536 1537 1538 1538 1538 1539 1540 1540 1540 1540 1540 1540
1510 1511 1512 1513 1514 1515 1515 1516 1517 1518 1518 1519 1519 1519 1520 1520 1521 1521 1522 1523 1524 1525 1526 1527 1528 1529 1530 1531 1532 1533 1534 1534 1535 1536 1536 1537 1537 1538 1538 1539 1539 1539 1539
1507 1508 1509 1510 1511 1512 1513 1514 1514 1515 1516 1516 1516 1517 1517 1518 1518 1519 1519 1520 1521 1522 1523 1524 1525 1526 1528 1528 1529 1530 1531 1532 1533 1534 1535 1535 1536 1536 1537 1537 1537 1537 1538
1504 1505 1506 1508 1509 1509 1510 1511 1512 1512 1513 1513 1514 1514 1515 1515 1515 1516 1516 1517 1518 1519 1520 1522 1523 1524 1525 1526 1527 1528 1529 1530 1531 1532 1532 1533 1534 1534 1534 1535 1535 1535 1535
1501 1502 1503 1504 1505 1506 1507 1508 1509 1509 1510 1510 1511 1511 1512 1512 1513 1513 1514 1514 1515 1516 1518 1519 1520 1521 1522 1523 1524 1525 1526 1527 1528 1529 1530 1530 1531 1532 1532 1532 1533 1533 1533
1498 1499 1500 1501 1502 1503 1504 1505 1505 1506 1507 1507 1507 1508 1509 1509 1510 1510 1511 1512 1513 1514 1515 1516 1518 1519 1520 1521 1522 1523 1523 1524 1525 1526 1527 1528 1528 1529 1529 1530 1530 1531 1531
1494 1495 1496 1497 1498 1499 1500 1501 1502 1502 1503 1504 1504 1505 1506 1506 1506 1507 1508 1509 1510 1511 1512 1513 1515 1516 1517 1518 1520 1520 1521 1521 1522 1522 1523 1524 1525 1526 1526 1527 1527 1528 1528
1491 1492 1493 1493 1494 1495 1496 1497 1498 1499 1500 1501 1501 1502 1502 1503 1503 1504 1505 1506 1507 1508 1509 1510 1511 1512 1513 1515 1517 1518 1519 1520 1518 1519 1520 1521 1522 1523 1523 1524 1524 1525 1525
1488 1489 1489 1490 1491 1492 1493 1494 1495 1496 1497 1498 1498 1499 1499 1500 1501 1501 1502 1503 1504 1505 1506 1507 1508 1509 1510 1511 1513 1515 1516 1516 1517 1516 1516 1517 1518 1519 1520 1521 1521 1521 1522
1484 1485 1486 1487 1488 1489 1490 1491 1492 1492 1493 1494 1495 1496 1496 1497 1498 1498 1499 1500 1501 1502 1503 1504 1505 1506 1507 1508 1509 1511 1512 1513 1514 1514 1514 1515 1515 1516 1516 1517 1518 1518 1518
1481 1482 1483 1484 1485 1486 1486 1487 1488 1489 1490 1491 1492 1492 1493 1493 1494 1495 1496 1497 1498 1498 1499 1501 1502 1503 1503 1504 1505 1506 1508 1509 1510 1511 1511 1512 1512 1512 1513 1513 1514 1514 1514
1478 1479 1480 1481 1482 1483 1484 1484 1485 1486 1487 1488 1489 1489 1489 1490 1491 1492 1492 1493 1494 1495 1496 1497 1499 1499 1500 1501 1502 1503 1504 1505 1506 1507 1508 1508 1508 1508 1508 1509 1510 1510 1510